Regional Weather Roundup
Issued by NWS New Orleans/Baton Rouge, LA

Home | Current Version | Previous Version | Text Only | Print | Product List | Glossary On
Versions: 1 2 3 4 5 6 7 8 9 10 11 12 13 14 15 16 17 18 19 20 21 22 23 24 25 26 27 28 29 30 31 32 33 34 35 36 37 38 39 40 41 42 43 44 45 46 47 48 49 50
000
ASUS44 KLIX 211110
RWRLIX
NEW ORLEANS REGIONAL WEATHER ROUNDUP
NATIONAL WEATHER SERVICE NEW ORLEANS LA
600 AM CDT TUE OCT 21 2014

NOTE: "FAIR" INDICATES FEW OR NO CLOUDS BELOW 12,000 FEET WITH NO
      SIGNIFICANT WEATHER AND/OR OBSTRUCTIONS TO VISIBILITY.
      SKY/WX - SKY CONDITION AND SIGNIFICANT WEATHER.
      TMP - AIR TEMPERATURE.     DP    - DEWPOINT TEMPERATURE.
      RH  - RELATIVE HUMIDITY.   PRES  - PRESSURE.
      HI  - HEAT INDEX.          WCI   - WIND CHILL INDEX.

*  THESE STATIONS ARE NOT NWS OR FAA STATIONS AND ARE NOT UNDER
   NWS QUALITY CONTROL.

LAZ038-040-048-061>063-065>067-069-211200-
SOUTHEAST LOUISIANA

CITY           SKY/WX    TMP DP  RH WIND       PRES   REMARKS
N.O. AUDUBON     N/A     61  56  83 MISG        N/A
N.O. INTL ARPT CLEAR     59  54  83 CALM      30.02R
N.O. LAKEFRONT CLEAR     68  56  65 NE12      30.03R
N.O. DOWNTOWN*   N/A     66  52  59 NE6       30.03R
SLIDELL        CLEAR     50  48  93 CALM      30.03R
BATON ROUGE    CLEAR     55  51  86 NE5       30.04R
BOOTHVILLE     CLEAR     71  60  68 NE6       30.00S
BELLE CHASSE   CLEAR     54  51  90 CALM      30.01S
BOGALUSA*        N/A     49  46  89 CALM      30.06R
NEW ROADS*       N/A     55  53  92 CALM      30.04R
GONZALES*        N/A     55  55 100 CALM      30.03R
HAMMOND*       CLEAR     54  48  82 CALM      30.05R
HOUMA*         CLEAR     56  56 100 CALM      30.01S
PORT FOURCHON* SUNNY     70  61  73 NE7       30.03R

$$

MSZ070-080>082-211200-
SOUTHERN MISSISSIPPI

CITY           SKY/WX    TMP DP  RH WIND       PRES   REMARKS
MCCOMB         CLEAR     53  49  86 CALM      30.05R
GULFPORT       CLEAR     52  50  93 N3        30.02R
BILOXI         CLEAR     57  51  80 N5        30.03R
PASCAGOULA     CLEAR     48  47  96 CALM      30.03R

$$

COASTAL OBSERVATIONS
LAKE AND NEARSHORE STATIONS

STATION/POSITION TIME  TEMP    WIND        PRES    WAVE
                       AIR SEA DIR/SP/G            HT/PER
                 (UTC) (F)     (DEG/KT/KT) (MB)    (FT/S)
PASCAGOULA       1100   57      10/  5/  7 1016.0
WAVELAND YACHT   1100   62      10/  6/  8 1015.8
GRAND ISLE       1100   71 76   60/  8/ 11 1016.1
SOUTHWEST PASS   1100   73 83              1015.8
NEW CANAL        1100   66 71   CALM  /  2 1016.9
SHELL BEACH      1100   69 69   40/ 11/ 12 1016.1

OFFSHORE STATIONS

STATION/POSITION TIME  TEMP    WIND        PRES    WAVE
                       AIR SEA DIR/SP/G            HT/PER
                 (UTC) (F)     (DEG/KT/KT) (MB)    (FT/S)
64 S DAUPHIN ISL 1026   74 79   40/ 10/ 12 1015.9    1/ 5

$$



USA.gov is the U.S. government's official web portal to all federal, state and local government web resources and services.